Location: Unspecified
(47.5840°N, 122.3000°W)
Time: 13:42:35
(UTC+00:00)

IRIDIUM 114 - Pass Details

Date: 22 March 2026
Orbit: 776 x 779 km, 86.4° (Epoch: 18 April)

Event Time Altitude Azimuth Distance (km) Brightness Sun altitude
Exits shadow 03:39:36 18° 120° (ESE) 1,815 5.6 -13.4°
Maximum altitude 03:42:04 26° 81° (E) 1,491 5.3 -13.8°
Drops below altitude 10° 03:46:21 10° 26° (NNE) 2,341 6.7 -14.5°
Sets 03:49:01 0° 14° (NNE) 3,274 7.6 -14.9°
